QPF
0.00 0.00 0.00 0.00 0.00 0.00 0.00 0.00 0.00 0.00 0.00 0.00 0.00 0.00 0.00 0.00 0.00 0.00 0.00 0.00 0.00 0.00 0.00 0.00 0.00 0.01 0.01 0.01 0.01 0.01 0.02 0.02 0.02 0.02 0.03 0.03 0.04 0.04
0.00 0.00 0.00 0.00 0.00 0.00 0.00 0.00 0.00 0.00 0.00 0.00 0.00 0.00 0.00 0.00 0.00 0.00 0.00 0.00 0.00 0.00 0.00 0.00 0.01 0.01 0.01 0.01 0.01 0.02 0.02 0.03 0.03 0.03 0.04 0.04 0.04 0.04
0.00 0.00 0.00 0.00 0.00 0.00 0.00 0.01 0.01 0.01 0.01 0.00 0.00 0.00 0.00 0.00 0.00 0.00 0.00 0.00 0.00 0.00 0.00 0.01 0.01 0.01 0.01 0.01 0.02 0.02 0.03 0.03 0.03 0.03 0.03 0.03 0.04 0.04
0.01 0.00 0.00 0.01 0.01 0.02 0.02 0.02 0.01 0.01 0.01 0.00 0.00 0.00 0.00 0.00 0.00 0.00 0.00 0.00 0.00 0.00 0.00 0.01 0.01 0.01 0.01 0.02 0.02 0.02 0.03 0.03 0.02 0.02 0.02 0.03 0.03 0.03
0.01 0.01 0.01 0.02 0.02 0.01 0.01 0.01 0.00 0.00 0.00 0.00 0.00 0.00 0.00 0.00 0.00 0.00 0.00 0.00 0.00 0.00 0.00 0.00 0.00 0.01 0.01 0.02 0.02 0.03 0.03 0.02 0.02 0.02 0.02 0.02 0.03 0.03
0.01 0.01 0.01 0.00 0.00 0.00 0.00 0.00 0.00 0.00 0.00 0.00 0.00 0.00 0.00 0.00 0.00 0.00 0.00 0.00 0.00 0.00 0.00 0.00 0.00 0.00 0.01 0.01 0.01 0.01 0.01 0.01 0.01 0.02 0.03 0.03 0.03 0.03
0.00 0.00 0.00 0.00 0.00 0.00 0.00 0.00 0.00 0.00 0.01 0.01 0.01 0.00 0.00 0.00 0.00 0.00 0.00 0.00 0.00 0.00 0.00 0.00 0.00 0.00 0.00 0.00 0.00 0.00 0.01 0.01 0.02 0.02 0.03 0.03 0.03 0.04
0.00 0.00 0.00 0.00 0.00 0.00 0.00 0.01 0.01 0.01 0.01 0.01 0.01 0.01 0.01 0.01 0.00 0.00 0.01 0.01 0.01 0.00 0.00 0.00 0.00 0.00 0.00 0.00 0.00 0.00 0.01 0.01 0.02 0.02 0.02 0.03 0.03 0.03
0.00 0.00 0.00 0.00 0.00 0.00 0.00 0.01 0.01 0.01 0.01 0.01 0.02 0.01 0.01 0.01 0.02 0.02 0.02 0.03 0.02 0.01 0.02 0.01 0.00 0.00 0.00 0.00 0.00 0.00 0.01 0.01 0.02 0.02 0.02 0.03 0.03 0.03
0.00 0.00 0.00 0.00 0.00 0.00 0.01 0.00 0.00 0.00 0.01 0.01 0.01 0.01 0.01 0.02 0.02 0.04 0.04 0.04 0.03 0.01 0.01 0.01 0.00 0.00 0.00 0.00 0.00 0.00 0.01 0.01 0.01 0.02 0.02 0.02 0.02 0.03
0.00 0.00 0.00 0.00 0.00 0.01 0.01 0.00 0.00 0.00 0.00 0.01 0.01 0.01 0.02 0.02 0.02 0.02 0.03 0.03 0.02 0.00 0.00 0.01 0.00 0.00 0.00 0.00 0.00 0.00 0.00 0.00 0.01 0.01 0.01 0.02 0.02 0.02
0.00 0.00 0.00 0.00 0.00 0.01 0.01 0.00 0.01 0.01 0.01 0.01 0.01 0.01 0.00 0.00 0.01 0.01 0.02 0.02 0.02 0.01 0.00 0.01 0.01 0.00 0.01 0.00 0.00 0.00 0.00 0.00 0.00 0.00 0.00 0.01 0.02 0.02
0.00 0.00 0.00 0.00 0.01 0.01 0.01 0.00 0.01 0.02 0.01 0.02 0.01 0.01 0.00 0.01 0.01 0.01 0.01 0.02 0.03 0.02 0.01 0.02 0.02 0.01 0.01 0.01 0.00 0.00 0.00 0.00 0.00 0.00 0.00 0.00 0.01 0.02
0.00 0.00 0.00 0.01 0.01 0.01 0.00 0.01 0.01 0.01 0.01 0.00 0.00 0.00 0.00 0.00 0.00 0.00 0.00 0.01 0.01 0.01 0.01 0.02 0.03 0.02 0.02 0.02 0.00 0.00 0.00 0.00 0.00 0.00 0.00 0.00 0.00 0.01
0.00 0.00 0.00 0.00 0.00 0.00 0.00 0.01 0.00 0.00 0.00 0.00 0.00 0.00 0.00 0.00 0.00 0.00 0.00 0.01 0.01 0.01 0.01 0.01 0.02 0.02 0.02 0.02 0.01 0.00 0.00 0.00 0.00 0.00 0.00 0.00 0.00 0.00
0.00 0.00 0.00 0.00 0.00 0.00 0.00 0.00 0.00 0.00 0.00 0.01 0.00 0.00 0.00 0.00 0.00 0.01 0.01 0.01 0.00 0.00 0.00 0.00 0.01 0.02 0.01 0.01 0.01 0.01 0.01 0.01 0.00 0.00 0.00 0.00 0.00 0.00
0.00 0.00 0.00 0.00 0.00 0.00 0.00 0.00 0.00 0.00 0.00 0.00 0.00 0.00 0.01 0.01 0.01 0.00 0.01 0.01 0.01 0.00 0.00 0.00 0.00 0.00 0.00 0.01 0.01 0.00 0.00 0.00 0.00 0.00 0.00 0.00 0.00 0.00
0.00 0.00 0.00 0.00 0.00 0.00 0.00 0.00 0.00 0.00 0.00 0.00 0.00 0.01 0.01 0.01 0.01 0.01 0.01 0.01 0.01 0.00 0.00 0.00 0.00 0.00 0.00 0.00 0.00 0.00 0.00 0.00 0.00 0.01 0.01 0.01 0.00 0.00
0.00 0.00 0.00 0.00 0.00 0.00 0.00 0.00 0.00 0.00 0.00 0.00 0.01 0.00 0.01 0.01 0.01 0.01 0.01 0.01 0.01 0.00 0.00 0.00 0.01 0.01 0.01 0.00 0.00 0.00 0.00 0.00 0.00 0.00 0.00 0.01 0.00 0.00
0.00 0.00 0.00 0.00 0.00 0.00 0.00 0.00 0.00 0.00 0.00 0.00 0.00 0.01 0.01 0.01 0.01 0.01 0.01 0.01 0.01 0.01 0.00 0.00 0.01 0.01 0.02 0.02 0.01 0.00 0.00 0.01 0.01 0.01 0.00 0.00 0.00 0.00
0.00 0.00 0.00 0.00 0.00 0.00 0.00 0.00 0.00 0.00 0.00 0.01 0.01 0.01 0.01 0.01 0.01 0.01 0.01 0.01 0.01 0.01 0.00 0.00 0.00 0.01 0.01 0.01 0.01 0.00 0.00 0.00 0.01 0.01 0.01 0.01 0.00 0.00
0.00 0.00 0.00 0.00 0.00 0.00 0.00 0.00 0.00 0.01 0.01 0.01 0.00 0.00 0.00 0.01 0.01 0.01 0.01 0.01 0.01 0.01 0.00 0.00 0.00 0.00 0.00 0.01 0.01 0.00 0.00 0.00 0.00 0.00 0.00 0.01 0.02 0.02
0.00 0.00 0.00 0.00 0.00 0.00 0.00 0.00 0.01 0.01 0.01 0.01 0.00 0.00 0.00 0.01 0.01 0.01 0.01 0.01 0.01 0.00 0.00 0.00 0.00 0.00 0.00 0.01 0.01 0.00 0.00 0.00 0.00 0.00 0.00 0.00 0.00 0.01
MSLP
1021.61 1022.08 1022.54 1022.98 1023.38 1023.72 1024.01 1024.23 1024.38 1024.48 1024.53 1024.54 1024.51 1024.44 1024.33 1024.17 1023.96 1023.69 1023.37 1023.01 1022.63 1022.23 1021.84 1021.45 1021.08 1020.71 1020.34 1019.95 1019.52 1019.05 1018.54 1017.98 1017.38 1016.76 1016.13 1015.49 1014.86 1014.24
1021.24 1021.71 1022.17 1022.61 1023.02 1023.39 1023.70 1023.95 1024.14 1024.28 1024.36 1024.40 1024.39 1024.33 1024.22 1024.05 1023.82 1023.53 1023.19 1022.80 1022.39 1021.97 1021.56 1021.15 1020.76 1020.37 1019.98 1019.57 1019.13 1018.64 1018.12 1017.55 1016.94 1016.30 1015.65 1014.99 1014.33 1013.67
1020.80 1021.27 1021.73 1022.18 1022.59 1022.98 1023.32 1023.60 1023.84 1024.02 1024.14 1024.21 1024.23 1024.19 1024.08 1023.91 1023.67 1023.37 1023.01 1022.61 1022.17 1021.73 1021.29 1020.86 1020.44 1020.03 1019.61 1019.18 1018.72 1018.22 1017.69 1017.11 1016.49 1015.85 1015.19 1014.52 1013.84 1013.16
1020.27 1020.74 1021.20 1021.65 1022.08 1022.48 1022.84 1023.16 1023.43 1023.66 1023.82 1023.93 1023.98 1023.95 1023.87 1023.71 1023.47 1023.17 1022.81 1022.40 1021.96 1021.51 1021.05 1020.60 1020.15 1019.71 1019.27 1018.81 1018.33 1017.83 1017.28 1016.70 1016.09 1015.46 1014.80 1014.13 1013.44 1012.75
1019.64 1020.12 1020.59 1021.04 1021.48 1021.89 1022.27 1022.61 1022.91 1023.16 1023.36 1023.50 1023.58 1023.59 1023.53 1023.39 1023.18 1022.90 1022.56 1022.17 1021.74 1021.29 1020.83 1020.37 1019.91 1019.44 1018.98 1018.50 1018.00 1017.47 1016.93 1016.35 1015.75 1015.13 1014.49 1013.83 1013.15 1012.46
1018.96 1019.44 1019.90 1020.35 1020.79 1021.21 1021.59 1021.95 1022.26 1022.54 1022.76 1022.92 1023.03 1023.07 1023.04 1022.94 1022.77 1022.54 1022.24 1021.88 1021.49 1021.07 1020.63 1020.17 1019.70 1019.22 1018.74 1018.23 1017.71 1017.18 1016.62 1016.05 1015.46 1014.86 1014.24 1013.61 1012.96 1012.28
1018.25 1018.72 1019.17 1019.62 1020.05 1020.45 1020.83 1021.19 1021.50 1021.78 1022.02 1022.20 1022.33 1022.41 1022.42 1022.37 1022.26 1022.08 1021.84 1021.55 1021.21 1020.83 1020.42 1019.98 1019.52 1019.04 1018.53 1018.01 1017.47 1016.92 1016.36 1015.79 1015.22 1014.64 1014.05 1013.45 1012.83 1012.18
1017.53 1017.99 1018.43 1018.86 1019.27 1019.66 1020.02 1020.36 1020.67 1020.94 1021.18 1021.38 1021.54 1021.65 1021.70 1021.71 1021.66 1021.55 1021.38 1021.16 1020.89 1020.57 1020.20 1019.79 1019.35 1018.86 1018.35 1017.82 1017.26 1016.70 1016.13 1015.56 1015.00 1014.44 1013.88 1013.31 1012.73 1012.12
1016.84 1017.27 1017.69 1018.09 1018.47 1018.84 1019.18 1019.50 1019.79 1020.07 1020.31 1020.52 1020.70 1020.84 1020.94 1021.00 1021.02 1020.98 1020.89 1020.74 1020.54 1020.28 1019.96 1019.58 1019.16 1018.68 1018.17 1017.62 1017.06 1016.48 1015.91 1015.34 1014.79 1014.25 1013.71 1013.18 1012.63 1012.07
1016.19 1016.59 1016.97 1017.34 1017.70 1018.04 1018.36 1018.66 1018.94 1019.21 1019.45 1019.68 1019.88 1020.06 1020.20 1020.32 1020.39 1020.42 1020.39 1020.31 1020.17 1019.96 1019.69 1019.35 1018.94 1018.48 1017.97 1017.42 1016.85 1016.27 1015.69 1015.13 1014.58 1014.06 1013.55 1013.04 1012.53 1012.01
1015.59 1015.95 1016.30 1016.64 1016.97 1017.28 1017.58 1017.87 1018.15 1018.42 1018.67 1018.91 1019.14 1019.35 1019.53 1019.69 1019.81 1019.88 1019.91 1019.88 1019.79 1019.62 1019.39 1019.07 1018.69 1018.25 1017.75 1017.21 1016.64 1016.06 1015.49 1014.93 1014.39 1013.88 1013.39 1012.91 1012.43 1011.94
1015.07 1015.39 1015.70 1016.01 1016.31 1016.60 1016.89 1017.17 1017.44 1017.71 1017.98 1018.24 1018.49 1018.73 1018.94 1019.13 1019.28 1019.40 1019.46 1019.46 1019.40 1019.27 1019.06 1018.78 1018.42 1018.00 1017.52 1016.99 1016.44 1015.87 1015.31 1014.76 1014.23 1013.73 1013.26 1012.79 1012.34 1011.87
1014.64 1014.91 1015.19 1015.47 1015.74 1016.02 1016.29 1016.56 1016.84 1017.12 1017.40 1017.68 1017.95 1018.20 1018.44 1018.65 1018.82 1018.95 1019.03 1019.05 1019.01 1018.90 1018.71 1018.46 1018.13 1017.73 1017.28 1016.78 1016.25 1015.70 1015.15 1014.62 1014.10 1013.61 1013.15 1012.70 1012.25 1011.80
1014.33 1014.57 1014.82 1015.06 1015.31 1015.56 1015.81 1016.07 1016.35 1016.62 1016.91 1017.19 1017.47 1017.74 1017.99 1018.21 1018.39 1018.53 1018.61 1018.65 1018.62 1018.52 1018.36 1018.13 1017.83 1017.47 1017.05 1016.58 1016.08 1015.55 1015.03 1014.50 1014.00 1013.51 1013.04 1012.59 1012.15 1011.71
1014.19 1014.39 1014.60 1014.81 1015.02 1015.24 1015.47 1015.70 1015.95 1016.22 1016.49 1016.77 1017.05 1017.32 1017.57 1017.79 1017.97 1018.11 1018.20 1018.24 1018.22 1018.14 1018.00 1017.79 1017.53 1017.20 1016.82 1016.39 1015.91 1015.42 1014.91 1014.39 1013.89 1013.40 1012.92 1012.46 1012.01 1011.56
1014.23 1014.40 1014.57 1014.74 1014.91 1015.07 1015.25 1015.44 1015.65 1015.89 1016.13 1016.39 1016.66 1016.92 1017.16 1017.37 1017.55 1017.69 1017.79 1017.83 1017.82 1017.76 1017.64 1017.46 1017.23 1016.94 1016.59 1016.19 1015.75 1015.27 1014.77 1014.26 1013.74 1013.24 1012.74 1012.26 1011.79 1011.32
1014.47 1014.61 1014.74 1014.85 1014.96 1015.06 1015.17 1015.30 1015.44 1015.62 1015.82 1016.04 1016.28 1016.52 1016.74 1016.95 1017.13 1017.27 1017.37 1017.42 1017.43 1017.39 1017.29 1017.15 1016.94 1016.68 1016.37 1015.99 1015.57 1015.09 1014.59 1014.07 1013.53 1013.00 1012.47 1011.96 1011.45 1010.96
1014.90 1015.01 1015.09 1015.14 1015.17 1015.19 1015.21 1015.25 1015.32 1015.42 1015.55 1015.72 1015.92 1016.13 1016.34 1016.53 1016.71 1016.85 1016.96 1017.03 1017.06 1017.03 1016.96 1016.84 1016.66 1016.43 1016.13 1015.77 1015.35 1014.88 1014.36 1013.81 1013.25 1012.68 1012.11 1011.55 1011.01 1010.48
1015.48 1015.55 1015.57 1015.55 1015.50 1015.42 1015.35 1015.29 1015.26 1015.28 1015.34 1015.45 1015.60 1015.77 1015.96 1016.14 1016.32 1016.47 1016.59 1016.67 1016.71 1016.71 1016.66 1016.56 1016.40 1016.17 1015.89 1015.53 1015.11 1014.63 1014.09 1013.52 1012.92 1012.31 1011.70 1011.09 1010.50 1009.92
1016.14 1016.17 1016.13 1016.04 1015.90 1015.73 1015.56 1015.40 1015.28 1015.21 1015.19 1015.24 1015.33 1015.47 1015.64 1015.81 1015.99 1016.14 1016.27 1016.36 1016.42 1016.43 1016.39 1016.30 1016.15 1015.93 1015.64 1015.29 1014.86 1014.37 1013.82 1013.22 1012.60 1011.95 1011.30 1010.65 1010.01 1009.38
1016.83 1016.81 1016.72 1016.55 1016.33 1016.07 1015.81 1015.56 1015.35 1015.20 1015.12 1015.10 1015.15 1015.26 1015.40 1015.56 1015.73 1015.88 1016.01 1016.11 1016.17 1016.19 1016.15 1016.07 1015.92 1015.71 1015.42 1015.07 1014.64 1014.15 1013.59 1012.99 1012.35 1011.68 1011.00 1010.31 1009.63 1008.95
1017.48 1017.41 1017.26 1017.03 1016.73 1016.40 1016.06 1015.74 1015.46 1015.25 1015.11 1015.05 1015.06 1015.14 1015.26 1015.40 1015.56 1015.71 1015.83 1015.93 1015.99 1016.00 1015.96 1015.87 1015.72 1015.52 1015.24 1014.90 1014.48 1014.01 1013.47 1012.87 1012.24 1011.58 1010.89 1010.18 1009.47 1008.74
1018.02 1017.91 1017.70 1017.41 1017.07 1016.68 1016.29 1015.92 1015.59 1015.34 1015.16 1015.07 1015.05 1015.10 1015.20 1015.33 1015.47 1015.61 1015.72 1015.81 1015.85 1015.86 1015.82 1015.72 1015.58 1015.38 1015.12 1014.80 1014.42 1013.97 1013.47 1012.92 1012.32 1011.68 1011.01 1010.30 1009.57 1008.82
Thickness
5524 5517 5511 5505 5498 5491 5484 5476 5468 5463 5463 5461 5456 5454 5448 5443 5438 5434 5430 5425 5422 5419 5415 5412 5410 5407 5404 5402 5400 5398 5396 5395 5394 5394 5393 5393 5393 5393
5518 5511 5504 5498 5491 5483 5476 5468 5461 5454 5451 5451 5446 5442 5437 5431 5426 5421 5416 5411 5406 5403 5400 5397 5393 5390 5387 5385 5382 5381 5379 5378 5376 5375 5374 5373 5373 5373
5512 5505 5498 5491 5483 5475 5467 5459 5452 5444 5441 5442 5436 5431 5424 5419 5413 5407 5401 5396 5391 5386 5383 5380 5376 5373 5370 5367 5365 5363 5361 5359 5358 5357 5355 5354 5354 5354
5505 5498 5490 5483 5475 5467 5459 5451 5444 5437 5431 5430 5426 5418 5412 5406 5400 5393 5387 5381 5375 5370 5366 5363 5359 5355 5352 5349 5347 5344 5343 5341 5339 5338 5337 5337 5336 5336
5500 5491 5484 5475 5467 5459 5451 5443 5436 5429 5421 5416 5413 5406 5399 5391 5385 5378 5372 5365 5359 5354 5350 5346 5342 5338 5334 5331 5329 5327 5325 5323 5321 5320 5319 5319 5319 5320
5493 5485 5477 5468 5461 5452 5444 5436 5428 5419 5411 5403 5398 5392 5385 5377 5368 5361 5357 5350 5344 5339 5334 5329 5325 5321 5317 5314 5312 5310 5308 5306 5305 5304 5304 5305 5305 5306
5484 5476 5469 5461 5454 5446 5437 5428 5419 5409 5400 5392 5386 5379 5371 5361 5353 5347 5341 5337 5332 5325 5320 5314 5308 5304 5301 5297 5295 5293 5293 5292 5292 5292 5292 5292 5293 5294
5476 5468 5460 5453 5445 5438 5430 5422 5412 5401 5391 5382 5374 5365 5359 5349 5342 5334 5326 5322 5319 5314 5305 5302 5295 5291 5288 5284 5282 5282 5282 5281 5281 5281 5280 5281 5283 5285
5468 5459 5452 5444 5436 5427 5419 5411 5401 5391 5382 5372 5363 5354 5345 5338 5330 5322 5314 5307 5303 5297 5290 5289 5283 5278 5276 5274 5273 5273 5273 5272 5272 5272 5272 5273 5275 5277
5459 5451 5442 5433 5425 5417 5409 5399 5389 5379 5370 5361 5352 5343 5334 5325 5317 5309 5302 5296 5291 5283 5275 5272 5271 5268 5267 5265 5264 5264 5264 5264 5264 5265 5266 5267 5268 5270
5449 5440 5432 5423 5416 5409 5399 5389 5379 5368 5359 5350 5341 5332 5322 5313 5305 5296 5288 5281 5277 5272 5264 5259 5259 5258 5258 5258 5256 5256 5256 5257 5257 5258 5260 5261 5263 5265
5438 5430 5422 5414 5406 5397 5386 5376 5366 5357 5348 5339 5328 5318 5308 5299 5291 5283 5274 5267 5262 5258 5255 5249 5248 5246 5248 5250 5249 5249 5249 5250 5251 5252 5254 5256 5258 5260
5427 5418 5410 5403 5394 5385 5375 5364 5355 5346 5336 5324 5314 5304 5295 5287 5280 5272 5264 5256 5250 5246 5244 5241 5239 5237 5236 5241 5243 5244 5244 5244 5245 5247 5248 5251 5254 5256
5417 5408 5399 5391 5382 5372 5362 5352 5342 5332 5320 5310 5300 5291 5283 5276 5270 5263 5256 5249 5243 5239 5237 5234 5232 5230 5230 5232 5236 5240 5240 5241 5242 5243 5245 5248 5251 5253
5407 5398 5388 5379 5368 5357 5347 5337 5327 5316 5306 5296 5287 5280 5273 5267 5261 5255 5250 5244 5239 5236 5233 5231 5228 5227 5225 5227 5230 5233 5235 5238 5240 5240 5242 5245 5247 5249
5394 5385 5375 5364 5354 5343 5333 5322 5311 5302 5293 5284 5277 5270 5264 5259 5253 5248 5242 5238 5233 5231 5231 5229 5227 5225 5224 5226 5227 5230 5231 5232 5236 5238 5240 5244 5247 5249
5382 5371 5360 5349 5338 5328 5318 5308 5299 5291 5282 5275 5268 5262 5257 5252 5247 5242 5237 5232 5227 5225 5224 5226 5226 5226 5226 5226 5227 5229 5230 5232 5234 5236 5239 5243 5248 5250
5370 5357 5346 5335 5325 5315 5305 5297 5288 5281 5273 5266 5260 5254 5249 5244 5240 5236 5233 5228 5224 5222 5220 5220 5221 5223 5225 5228 5228 5228 5229 5231 5233 5235 5237 5240 5246 5250
5356 5344 5333 5323 5313 5303 5294 5286 5278 5271 5264 5257 5252 5247 5242 5238 5235 5232 5228 5225 5222 5220 5219 5218 5217 5218 5218 5220 5225 5228 5227 5230 5232 5235 5237 5239 5243 5249
5343 5332 5322 5312 5302 5293 5284 5277 5270 5263 5256 5250 5245 5240 5236 5232 5230 5227 5224 5221 5220 5218 5217 5217 5216 5216 5216 5217 5220 5225 5228 5229 5231 5233 5237 5241 5244 5250
5332 5322 5312 5302 5293 5284 5276 5268 5261 5255 5250 5244 5240 5235 5231 5227 5225 5223 5221 5221 5219 5216 5215 5216 5217 5218 5217 5216 5217 5223 5228 5231 5232 5233 5237 5240 5244 5248
5322 5312 5302 5293 5284 5275 5267 5260 5253 5249 5244 5239 5235 5230 5227 5224 5222 5220 5219 5217 5216 5214 5214 5215 5216 5216 5215 5215 5217 5220 5224 5229 5233 5236 5239 5241 5242 5245
5313 5303 5294 5285 5276 5268 5260 5253 5248 5243 5239 5234 5230 5227 5224 5222 5220 5218 5217 5216 5215 5214 5213 5213 5214 5214 5214 5215 5215 5218 5221 5226 5230 5234 5239 5243 5245 5247